Location: Newark
(12.4436°N, 0.6167°W)
Time: 21:55:00
(UTC+00:00)

Vanguard 1 - Pass Details

Date: 11 December 2019
Orbit: 651 x 3832 km, 34.2° (Epoch: 17 January)

Event Time Altitude Azimuth Distance (km) Brightness Sun altitude
Rises 22:44:07 0° 200° (SSW) 5,269 14.0 -69.9°
Enters shadow 22:47:49 10° 189° (S) 4,707 13.6 -70.7°
Reaches altitude 10° 22:47:52 10° 189° (S) 4,702 - -70.7°
Maximum altitude 22:59:45 29° 133° (SE) 4,434 - -73.0°
Drops below altitude 10° 23:16:42 10° 82° (E) 6,806 - -75.9°
Exits shadow 23:21:39 - 75° (ENE) 7,641 14.5 -76.7°
Sets 23:23:34 0° 73° (ENE) 7,965 14.6 -76.9°
